TimeCDT,TemperatureF,Dew PointF,Humidity,Sea Level PressureIn,VisibilityMPH,Wind Direction,Wind SpeedMPH,Gust SpeedMPH,PrecipitationIn,Events,Conditions,WindDirDegrees,DateUTC
12:15 AM,51.8,39.2,62,29.98,10.0,WSW,4.6,-,N/A,,Mostly Cloudy,240,2012-10-10 05:15:00
12:35 AM,50.0,39.2,66,29.99,10.0,WSW,5.8,-,N/A,,Mostly Cloudy,240,2012-10-10 05:35:00
12:55 AM,48.2,37.4,66,30.00,10.0,SW,5.8,-,N/A,,Scattered Clouds,230,2012-10-10 05:55:00
1:15 AM,46.4,37.4,71,29.99,10.0,SW,5.8,-,N/A,,Mostly Cloudy,220,2012-10-10 06:15:00
1:35 AM,46.4,37.4,71,29.99,10.0,SW,6.9,-,N/A,,Partly Cloudy,220,2012-10-10 06:35:00
1:55 AM,46.4,37.4,71,30.00,10.0,SW,6.9,-,N/A,,Mostly Cloudy,220,2012-10-10 06:55:00
2:15 AM,48.2,39.2,71,30.00,10.0,SSW,6.9,-,N/A,,Overcast,210,2012-10-10 07:15:00
2:35 AM,51.8,41.0,67,30.00,10.0,SW,6.9,-,N/A,,Overcast,220,2012-10-10 07:35:00
2:55 AM,51.8,41.0,67,29.99,10.0,SSW,6.9,-,N/A,,Overcast,210,2012-10-10 07:55:00
3:15 AM,51.8,41.0,67,29.99,10.0,SW,5.8,-,N/A,,Overcast,230,2012-10-10 08:15:00
3:35 AM,51.8,41.0,67,30.00,10.0,NW,6.9,-,N/A,,Overcast,310,2012-10-10 08:35:00
3:55 AM,51.8,41.0,67,30.01,10.0,WSW,5.8,-,N/A,,Overcast,250,2012-10-10 08:55:00
4:15 AM,51.8,42.8,71,30.01,10.0,West,5.8,-,N/A,,Overcast,260,2012-10-10 09:15:00
4:35 AM,53.6,42.8,67,30.02,10.0,West,10.4,-,N/A,,Overcast,280,2012-10-10 09:35:00
4:55 AM,53.6,39.2,58,30.05,10.0,NNW,13.8,21.9,N/A,,Overcast,330,2012-10-10 09:55:00
5:15 AM,51.8,39.2,62,30.06,10.0,NNW,13.8,18.4,N/A,,Overcast,330,2012-10-10 10:15:00
5:35 AM,51.8,39.2,62,30.07,10.0,NW,8.1,-,N/A,,Overcast,310,2012-10-10 10:35:00
5:55 AM,50.0,37.4,62,30.08,10.0,NW,10.4,-,N/A,,Overcast,310,2012-10-10 10:55:00
6:15 AM,50.0,35.6,58,30.10,10.0,NW,10.4,-,N/A,,Overcast,320,2012-10-10 11:15:00
6:35 AM,48.2,35.6,62,30.11,10.0,NW,9.2,-,N/A,,Overcast,310,2012-10-10 11:35:00
6:55 AM,48.2,37.4,66,30.13,10.0,WNW,9.2,-,N/A,,Overcast,300,2012-10-10 11:55:00
7:15 AM,48.2,35.6,62,30.13,10.0,NW,10.4,-,N/A,,Overcast,310,2012-10-10 12:15:00
7:35 AM,48.2,35.6,62,30.15,10.0,NW,12.7,17.3,N/A,,Overcast,310,2012-10-10 12:35:00
7:55 AM,48.2,35.6,62,30.15,10.0,NW,11.5,-,N/A,,Overcast,320,2012-10-10 12:55:00
8:35 AM,50.0,35.6,58,30.17,10.0,WNW,12.7,-,N/A,,Clear,300,2012-10-10 13:35:00
8:55 AM,50.0,35.6,58,30.17,10.0,NNW,11.5,-,N/A,,Clear,330,2012-10-10 13:55:00
9:15 AM,51.8,37.4,58,30.18,10.0,NW,13.8,-,N/A,,Clear,320,2012-10-10 14:15:00
9:35 AM,51.8,35.6,54,30.19,10.0,WNW,15.0,20.7,N/A,,Partly Cloudy,300,2012-10-10 14:35:00
9:55 AM,51.8,35.6,54,30.19,10.0,WNW,12.7,-,N/A,,Mostly Cloudy,290,2012-10-10 14:55:00
10:15 AM,53.6,33.8,47,30.20,10.0,NW,16.1,20.7,N/A,,Scattered Clouds,320,2012-10-10 15:15:00
10:35 AM,55.4,35.6,47,30.20,10.0,WNW,15.0,-,N/A,,Clear,290,2012-10-10 15:35:00
10:55 AM,55.4,35.6,47,30.21,10.0,NW,11.5,18.4,N/A,,Partly Cloudy,320,2012-10-10 15:55:00
11:15 AM,55.4,33.8,44,30.21,10.0,WNW,17.3,-,N/A,,Clear,300,2012-10-10 16:15:00
11:55 AM,57.2,33.8,41,30.22,10.0,West,15.0,23.0,N/A,,Clear,280,2012-10-10 16:55:00
12:15 PM,57.2,33.8,41,30.22,10.0,NW,17.3,23.0,N/A,,Clear,320,2012-10-10 17:15:00
12:35 PM,57.2,33.8,41,30.22,10.0,NW,15.0,21.9,N/A,,Clear,320,2012-10-10 17:35:00
12:55 PM,57.2,33.8,41,30.22,10.0,WNW,17.3,23.0,N/A,,Clear,290,2012-10-10 17:55:00
1:15 PM,57.2,33.8,41,30.22,10.0,NW,13.8,23.0,N/A,,Clear,310,2012-10-10 18:15:00
1:35 PM,55.4,32.0,41,30.22,10.0,NW,15.0,20.7,N/A,,Clear,310,2012-10-10 18:35:00
1:55 PM,55.4,30.2,38,30.21,10.0,NNW,15.0,19.6,N/A,,Clear,330,2012-10-10 18:55:00
2:15 PM,55.4,30.2,38,30.21,10.0,NNW,9.2,18.4,N/A,,Clear,330,2012-10-10 19:15:00
2:35 PM,57.2,32.0,38,30.21,10.0,NW,11.5,25.3,N/A,,Clear,320,2012-10-10 19:35:00
2:55 PM,57.2,30.2,36,30.21,10.0,WNW,11.5,17.3,N/A,,Clear,300,2012-10-10 19:55:00
3:15 PM,55.4,30.2,38,30.20,10.0,NNW,6.9,-,N/A,,Clear,340,2012-10-10 20:15:00
3:35 PM,55.4,28.4,36,30.21,10.0,NW,13.8,18.4,N/A,,Clear,320,2012-10-10 20:35:00
3:55 PM,55.4,28.4,36,30.21,10.0,NNW,8.1,-,N/A,,Clear,340,2012-10-10 20:55:00
4:15 PM,55.4,28.4,36,30.21,10.0,NW,9.2,-,N/A,,Clear,310,2012-10-10 21:15:00
4:35 PM,55.4,28.4,36,30.21,10.0,NNW,6.9,-,N/A,,Clear,330,2012-10-10 21:35:00
4:55 PM,55.4,28.4,36,30.22,10.0,NW,6.9,-,N/A,,Clear,310,2012-10-10 21:55:00
5:15 PM,53.6,28.4,38,30.22,10.0,North,9.2,-,N/A,,Clear,350,2012-10-10 22:15:00
5:35 PM,53.6,28.4,38,30.22,10.0,North,4.6,-,N/A,,Clear,350,2012-10-10 22:35:00
5:55 PM,53.6,28.4,38,30.23,10.0,NNW,4.6,-,N/A,,Clear,330,2012-10-10 22:55:00
6:15 PM,51.8,28.4,41,30.23,10.0,Calm,Calm,-,N/A,,Clear,0,2012-10-10 23:15:00
6:35 PM,51.8,26.6,38,30.23,10.0,North,3.5,-,N/A,,Clear,350,2012-10-10 23:35:00
6:55 PM,46.4,28.4,50,30.24,10.0,NNW,3.5,-,N/A,,Clear,330,2012-10-10 23:55:00
7:15 PM,42.8,28.4,57,30.24,10.0,Calm,Calm,-,N/A,,Clear,0,2012-10-11 00:15:00
7:35 PM,39.2,28.4,65,30.25,10.0,Calm,Calm,-,N/A,,Clear,0,2012-10-11 00:35:00
7:55 PM,41.0,28.4,61,30.25,10.0,Calm,Calm,-,N/A,,Clear,0,2012-10-11 00:55:00
8:15 PM,39.2,28.4,65,30.25,10.0,Calm,Calm,-,N/A,,Clear,0,2012-10-11 01:15:00
8:35 PM,39.2,28.4,65,30.26,10.0,Calm,Calm,-,N/A,,Clear,0,2012-10-11 01:35:00
8:55 PM,37.4,26.6,65,30.26,10.0,Calm,Calm,-,N/A,,Clear,0,2012-10-11 01:55:00
9:15 PM,37.4,26.6,65,30.26,10.0,Calm,Calm,-,N/A,,Clear,0,2012-10-11 02:15:00
9:35 PM,35.6,26.6,70,30.27,10.0,Calm,Calm,-,N/A,,Clear,0,2012-10-11 02:35:00
9:55 PM,35.6,26.6,70,30.27,10.0,Calm,Calm,-,N/A,,Clear,0,2012-10-11 02:55:00
10:15 PM,35.6,24.8,65,30.27,10.0,Calm,Calm,-,N/A,,Clear,0,2012-10-11 03:15:00
10:55 PM,35.6,26.6,70,30.27,10.0,Calm,Calm,-,N/A,,Clear,0,2012-10-11 03:55:00
11:15 PM,35.6,26.6,70,30.27,10.0,Calm,Calm,-,N/A,,Clear,0,2012-10-11 04:15:00
11:35 PM,35.6,24.8,65,30.27,10.0,Calm,Calm,-,N/A,,Clear,0,2012-10-11 04:35:00
11:55 PM,33.8,26.6,75,30.27,10.0,Calm,Calm,-,N/A,,Clear,0,2012-10-11 04:55:00